TimeCST,TemperatureF,Dew PointF,Humidity,Sea Level PressureIn,VisibilityMPH,Wind Direction,Wind SpeedMPH,Gust SpeedMPH,PrecipitationIn,Events,Conditions,WindDirDegrees,DateUTC
12:18 AM,55.4,53.6,94,29.93,2.0,SE,6.9,-,N/A,,Overcast,140,2014-03-01 06:18:00
12:31 AM,55.4,53.6,94,29.94,2.0,SE,4.6,-,N/A,,Overcast,140,2014-03-01 06:31:00
12:41 AM,53.6,53.6,100,29.94,1.8,SE,6.9,-,N/A,,Overcast,140,2014-03-01 06:41:00
12:53 AM,55.0,54.0,96,29.94,1.5,SE,6.9,-,N/A,,Overcast,130,2014-03-01 06:53:00
1:53 AM,55.0,54.0,96,29.95,1.5,ESE,4.6,-,N/A,,Overcast,120,2014-03-01 07:53:00
2:41 AM,55.4,53.6,94,29.95,2.0,SE,4.6,-,N/A,,Overcast,140,2014-03-01 08:41:00
2:53 AM,55.0,54.0,96,29.95,2.5,SE,5.8,-,N/A,,Overcast,130,2014-03-01 08:53:00
3:53 AM,55.0,55.0,100,29.95,2.5,SE,5.8,-,N/A,,Overcast,140,2014-03-01 09:53:00
4:50 AM,55.4,55.4,100,29.97,1.8,ESE,4.6,-,N/A,,Overcast,120,2014-03-01 10:50:00
4:53 AM,55.9,55.0,97,29.96,1.8,SE,5.8,-,N/A,,Overcast,130,2014-03-01 10:53:00
5:53 AM,57.0,55.9,96,29.99,1.8,ESE,5.8,-,N/A,,Overcast,120,2014-03-01 11:53:00
6:53 AM,55.9,55.9,100,30.00,0.8,ESE,4.6,-,N/A,,Mist,110,2014-03-01 12:53:00
7:53 AM,57.0,55.9,96,30.03,0.5,ESE,4.6,-,N/A,Fog,Fog,120,2014-03-01 13:53:00
8:53 AM,57.9,57.0,97,30.04,0.8,SE,8.1,-,N/A,,Overcast,130,2014-03-01 14:53:00
9:28 AM,59.0,59.0,100,30.05,1.2,SSE,10.4,-,N/A,,Overcast,150,2014-03-01 15:28:00
9:48 AM,60.8,59.0,94,30.05,2.0,SE,11.5,-,N/A,,Overcast,140,2014-03-01 15:48:00
9:53 AM,60.1,59.0,96,30.05,2.5,SSE,12.7,-,N/A,,Overcast,150,2014-03-01 15:53:00
10:09 AM,60.8,59.0,94,30.05,3.0,SSE,13.8,-,N/A,,Overcast,150,2014-03-01 16:09:00
10:53 AM,62.1,60.1,93,30.04,5.0,SSE,13.8,-,N/A,,Overcast,150,2014-03-01 16:53:00
11:26 AM,64.4,60.8,88,30.04,5.0,SE,9.2,-,N/A,,Overcast,140,2014-03-01 17:26:00
11:53 AM,66.0,61.0,84,30.03,7.0,SE,11.5,-,N/A,,Overcast,140,2014-03-01 17:53:00
12:17 PM,68.0,62.6,83,30.02,9.0,SE,11.5,-,N/A,,Overcast,140,2014-03-01 18:17:00
12:43 PM,68.0,62.6,83,30.01,9.0,SSE,12.7,-,N/A,,Overcast,150,2014-03-01 18:43:00
12:53 PM,68.0,62.1,81,30.01,9.0,SE,11.5,-,N/A,,Overcast,140,2014-03-01 18:53:00
1:02 PM,69.8,62.6,78,30.00,9.0,SSE,12.7,-,N/A,,Overcast,150,2014-03-01 19:02:00
1:53 PM,70.0,63.0,78,29.99,9.0,SSE,11.5,-,N/A,,Overcast,150,2014-03-01 19:53:00
2:53 PM,72.0,62.1,71,29.98,10.0,South,12.7,-,N/A,,Overcast,190,2014-03-01 20:53:00
3:53 PM,72.0,62.1,71,29.98,10.0,South,10.4,-,N/A,,Overcast,180,2014-03-01 21:53:00
4:53 PM,73.0,61.0,66,29.98,10.0,South,10.4,-,N/A,,Mostly Cloudy,190,2014-03-01 22:53:00
5:53 PM,70.0,61.0,73,29.97,10.0,South,5.8,-,N/A,,Clear,170,2014-03-01 23:53:00
6:53 PM,66.9,60.1,79,29.96,10.0,SSE,3.5,-,N/A,,Partly Cloudy,150,2014-03-02 00:53:00
7:53 PM,66.9,61.0,81,29.96,10.0,SE,6.9,-,N/A,,Clear,140,2014-03-02 01:53:00
8:53 PM,68.0,61.0,78,29.97,10.0,SSE,10.4,-,N/A,,Clear,160,2014-03-02 02:53:00
9:53 PM,68.0,62.1,81,29.99,10.0,South,10.4,-,N/A,,Clear,170,2014-03-02 03:53:00
10:51 PM,66.2,62.6,88,30.00,10.0,South,11.5,-,N/A,,Mostly Cloudy,180,2014-03-02 04:51:00
10:53 PM,66.9,62.1,84,30.00,10.0,South,12.7,-,N/A,,Mostly Cloudy,180,2014-03-02 04:53:00
11:53 PM,68.0,62.1,81,29.98,10.0,South,11.5,-,N/A,,Overcast,180,2014-03-02 05:53:00